Weather History for Kalaeloa, HI

Change the Weather History Date:

Saturday, May 3, 2014

  Actual Average (PHNL) Record (PHNL)
Temperature  
Mean Temperature 70 °F 77 °F  
Max Temperature 82 °F 84 °F 87 °F (1974)
Min Temperature 28 °F 70 °F 60 °F (1989)
Degree Days  
Heating Degree Days 0 0  
Month to date heating degree days 0  
Since 1 July heating degree days 0  
Cooling Degree Days 4 12  
Month to date cooling degree days 36  
Year to date cooling degree days 1143  
Growing Degree Days 20 (Base 50)    
Moisture  
Dew Point 67 °F    
Average Humidity 80    
Maximum Humidity 100    
Minimum Humidity 64    
Precipitation  
Precipitation 0.00 in 0.02 in 0.33 in (1988)
Month to date precipitation 0.07  
Year to date precipitation 7.02  
Snow  
Snow 0.00 in - - ()
Month to date snowfall  
Since 1 July snowfall  
Snow Depth -    
Sea Level Pressure  
Sea Level Pressure 30.07 in    
Wind  
Wind Speed 2 mph (South)    
Max Wind Speed 9 mph    
Max Gust Speed -    
Visibility 10 miles    
Events      
T = Trace of Precipitation, MM = Missing Value Source: NWS Daily Summary

Daily Weather History Graph

Daily Weather History Graph

Search for Another Location

Airport:

Trip Planner

Search our weather history database for the weather conditions in past years. The results will help you decide how hot, cold, wet, or windy it might be!

Date:

Astronomy

May. 03, 2014 Rise Set
Actual Time 6:00 AM HST 6:58 PM HST
Civil Twilight 5:36 AM HST 7:21 PM HST
Nautical Twilight 5:09 AM HST 7:49 PM HST
Astronomical Twilight 4:40 AM HST 8:17 PM HST
Moon 9:45 AM HST (5/3) 11:08 PM HST (5/3)
Length of Visible Light 13h 45m
Length of Day
12h 58m
Waxing Crescent, 21% of the Moon is Illuminated
May 3
Waxing Crescent
May 6
First Quarter
May 14
Full
May 21
Last Quarter
May 28
New

Hourly Weather History & Observations

Time (HST) Temp. Heat Index Dew Point Humidity Pressure Visibility Wind Dir Wind Speed Gust Speed Precip Events Conditions
12:42 AM 60.8 °F - - N/A% 30.08 in 10.0 mi Calm Calm - N/A   Partly Cloudy
12:53 AM 61.0 °F - - N/A% 30.09 in 10.0 mi Calm Calm - N/A   Scattered Clouds
1:53 AM 62.1 °F - - N/A% 30.07 in 10.0 mi Calm Calm - N/A   Scattered Clouds
2:53 AM 68.0 °F - 66.9 °F 96% 30.06 in 10.0 mi ENE 3.5 mph - N/A   Clear
3:53 AM 62.1 °F - - N/A% 30.05 in 10.0 mi Calm Calm - N/A   Mostly Cloudy
4:50 AM 57.2 °F - - N/A% 30.03 in 10.0 mi Calm Calm - 0.00 in   Mostly Cloudy
4:53 AM 57.0 °F - - N/A% 30.05 in 10.0 mi Calm Calm - 0.00 in   Mostly Cloudy
5:36 AM 69.8 °F - 66.2 °F 88% 30.03 in 10.0 mi Calm Calm - N/A   Overcast
5:53 AM 71.1 °F - 66.9 °F 87% 30.05 in 10.0 mi Calm Calm - N/A   Overcast
6:53 AM 57.9 °F - - N/A% 30.07 in 10.0 mi Calm Calm - N/A   Clear
7:24 AM 66.2 °F - 66.2 °F 100% 30.06 in 10.0 mi NE 3.5 mph - N/A   Partly Cloudy
7:53 AM 61.0 °F - 61.0 °F 100% 30.09 in 10.0 mi Calm Calm - N/A   Partly Cloudy
8:46 AM 78.8 °F - 68.0 °F 69% 30.08 in 10.0 mi Variable 4.6 mph - N/A   Mostly Cloudy
8:53 AM 72.0 °F - 68.0 °F 87% 30.10 in 10.0 mi SE 4.6 mph - N/A   Mostly Cloudy
9:40 AM 69.8 °F - 66.2 °F 88% 30.09 in 10.0 mi SSE 5.8 mph - N/A   Mostly Cloudy
9:53 AM 71.1 °F - 69.1 °F 93% 30.11 in 10.0 mi SSE 6.9 mph - N/A   Mostly Cloudy
10:53 AM 81.0 °F 84.1 °F 69.1 °F 67% 30.12 in 10.0 mi SSW 5.8 mph - N/A   Clear
11:53 AM 81.0 °F 84.1 °F 69.1 °F 67% 30.10 in 10.0 mi SSW 6.9 mph - N/A   Clear
12:53 PM 81.0 °F 84.1 °F 69.1 °F 67% 30.09 in 10.0 mi SW 8.1 mph - N/A   Clear
1:53 PM 82.9 °F 87.0 °F 70.0 °F 65% 30.06 in 10.0 mi SSW 9.2 mph - N/A   Clear
2:53 PM 82.0 °F 85.5 °F 69.1 °F 65% 30.05 in 10.0 mi SSW 9.2 mph - N/A   Partly Cloudy
3:53 PM 80.1 °F 82.7 °F 68.0 °F 67% 30.04 in 10.0 mi South 5.8 mph - N/A   Mostly Cloudy
4:53 PM 80.1 °F 82.3 °F 66.9 °F 64% 30.04 in 10.0 mi South 3.5 mph - N/A   Scattered Clouds
5:53 PM 79.0 °F - 68.0 °F 69% 30.04 in 10.0 mi SSE 3.5 mph - N/A   Partly Cloudy
6:53 PM 77.0 °F - 66.9 °F 71% 30.05 in 10.0 mi South 3.5 mph - N/A   Clear
7:53 PM 75.9 °F - 69.1 °F 79% 30.06 in 10.0 mi SSE 3.5 mph - N/A   Overcast
8:53 PM 70.0 °F - 69.1 °F 97% 30.09 in 10.0 mi Calm Calm - N/A   Overcast
9:53 PM 62.1 °F - - N/A% 30.10 in 10.0 mi Calm Calm - N/A   Clear
10:53 PM 63.0 °F - 63.0 °F 100% 30.10 in 10.0 mi Calm Calm - N/A   Partly Cloudy
11:53 PM 28.0 °F - - N/A% 30.11 in 10.0 mi Calm Calm - N/A   Scattered Clouds